When you browse on this site, cookies collect data to enhance your experience and personalize the content and advertising you see.
Visit our Privacy Policy to learn more. By continuing to use the site, you agree to this use of cookies and data.
  • In United Kingdom
  • List of Countries
  • For 7 days
  • Water Temperature
  • Weather Map
  • Weather Widgets
  • user-avatar
    Login

    Hourly Weather Havza

    Today, 21 October, Monday

    Time Temperature Precipitation Wind Pressure Humidity
    00:00 +14°C° 0 mm 1 mps 707 mmHg 94%
    01:00 +13°C° 0 mm 1 mps 707 mmHg 94%
    02:00 +13°C° 0 mm 1 mps 707 mmHg 94%
    03:00 +13°C° 0 mm 1 mps 707 mmHg 94%
    04:00 +13°C° 0 mm 1 mps 707 mmHg 94%
    05:00 +13°C° 0 mm 1 mps 707 mmHg 94%
    06:00 +13°C° 0 mm 1 mps 708 mmHg 91%
    07:00 +14°C° 0 mm 1 mps 708 mmHg 87%
    08:00 +15°C° 0 mm 1 mps 708 mmHg 84%
    09:00 +16°C° 0 mm 1 mps 708 mmHg 78%
    10:00 +17°C° 0 mm 2 mps 708 mmHg 71%
    11:00 +18°C° 0 mm 2 mps 708 mmHg 65%
    12:00 +19°C° 0 mm 2 mps 708 mmHg 64%
    13:00 +19°C° 0 mm 3 mps 707 mmHg 64%
    14:00 +19°C° 0 mm 3 mps 707 mmHg 64%
    15:00 +18°C° 0 mm 3 mps 707 mmHg 69%
    16:00 +17°C° 0 mm 3 mps 707 mmHg 75%
    17:00 +16°C° 0 mm 2 mps 707 mmHg 81%
    18:00 +15°C° 0 mm 2 mps 707 mmHg 84%
    19:00 +15°C° 0 mm 2 mps 707 mmHg 88%
    20:00 +14°C° 0 mm 1 mps 707 mmHg 91%
    21:00 +14°C° 0 mm 1 mps 706 mmHg 92%
    22:00 +13°C° 0 mm 1 mps 706 mmHg 93%
    23:00 +13°C° 0 mm 1 mps 706 mmHg 93%

    Tomorrow, 22 October, Tuesday

    Time Temperature Precipitation Wind Pressure Humidity
    00:00 +13°C° 0 mm 1 mps 706 mmHg 93%
    01:00 +13°C° 0 mm 1 mps 706 mmHg 93%
    02:00 +12°C° 0 mm 1 mps 706 mmHg 93%
    03:00 +12°C° 0 mm 1 mps 706 mmHg 92%
    04:00 +12°C° 0 mm 1 mps 706 mmHg 92%
    05:00 +12°C° 0 mm 1 mps 706 mmHg 92%
    06:00 +13°C° 0 mm 1 mps 706 mmHg 88%
    07:00 +14°C° 0 mm 1 mps 707 mmHg 84%
    08:00 +14°C° 0 mm 1 mps 707 mmHg 79%
    09:00 +16°C° 0 mm 1 mps 707 mmHg 73%
    10:00 +17°C° 0 mm 2 mps 707 mmHg 66%
    11:00 +19°C° 0 mm 2 mps 707 mmHg 60%
    12:00 +19°C° 0 mm 3 mps 707 mmHg 60%
    13:00 +19°C° 0 mm 3 mps 707 mmHg 60%
    14:00 +19°C° 0 mm 4 mps 706 mmHg 60%
    15:00 +18°C° 0 mm 3 mps 706 mmHg 68%
    16:00 +17°C° 0 mm 3 mps 706 mmHg 75%
    17:00 +14°C° 0 mm 3 mps 706 mmHg 82%
    18:00 +15°C° 0 mm 2 mps 706 mmHg 85%
    19:00 +14°C° 0 mm 2 mps 706 mmHg 88%
    20:00 +14°C° 0 mm 2 mps 707 mmHg 91%
    21:00 +13°C° 0 mm 1 mps 706 mmHg 91%
    22:00 +13°C° 0 mm 1 mps 706 mmHg 92%
    23:00 +13°C° 0 mm 1 mps 706 mmHg 93%

    Day after tomorrow, 23 October, Wednesday

    Time Temperature Precipitation Wind Pressure Humidity
    00:00 +13°C° 0 mm 1 mps 706 mmHg 93%
    01:00 +13°C° 0 mm 1 mps 706 mmHg 92%
    02:00 +12°C° 0 mm 1 mps 706 mmHg 92%
    03:00 +12°C° 0 mm 1 mps 706 mmHg 93%
    04:00 +12°C° 0 mm 1 mps 706 mmHg 93%
    05:00 +12°C° 0 mm 1 mps 706 mmHg 93%
    06:00 +13°C° 0 mm 1 mps 706 mmHg 89%
    07:00 +14°C° 0 mm 1 mps 706 mmHg 84%
    08:00 +14°C° 0 mm 1 mps 706 mmHg 80%
    09:00 +16°C° 0 mm 1 mps 706 mmHg 72%
    10:00 +17°C° 0 mm 2 mps 706 mmHg 64%
    11:00 +19°C° 0 mm 2 mps 706 mmHg 56%
    12:00 +19°C° 0 mm 2 mps 706 mmHg 53%
    13:00 +19°C° 0 mm 3 mps 706 mmHg 50%
    14:00 +20°C° 0 mm 3 mps 705 mmHg 48%
    15:00 +18°C° 0 mm 3 mps 705 mmHg 57%
    16:00 +16°C° 0 mm 3 mps 705 mmHg 67%
    17:00 +15°C° 0 mm 2 mps 705 mmHg 76%
    18:00 +14°C° 0 mm 2 mps 705 mmHg 81%
    19:00 +13°C° 0 mm 2 mps 705 mmHg 85%
    20:00 +12°C° 0 mm 1 mps 705 mmHg 90%
    21:00 +12°C° 0 mm 1 mps 705 mmHg 90%
    22:00 +11°C° 0 mm 1 mps 705 mmHg 90%
    23:00 +11°C° 0 mm 1 mps 705 mmHg 89%

    24 October, Thursday

    Time Temperature Precipitation Wind Pressure Humidity
    00:00 +11°C° 0 mm 1 mps 704 mmHg 90%
    01:00 +10°C° 0 mm 1 mps 704 mmHg 90%
    02:00 +10°C° 0 mm 1 mps 704 mmHg 91%
    03:00 +10°C° 0 mm 1 mps 704 mmHg 91%
    04:00 +9°C° 0 mm 0 mps 704 mmHg 91%
    05:00 +9°C° 0 mm 0 mps 704 mmHg 92%
    06:00 +10°C° 0 mm 0 mps 704 mmHg 88%
    07:00 +11°C° 0 mm 0 mps 704 mmHg 84%
    08:00 +12°C° 0 mm 0 mps 705 mmHg 80%
    09:00 +14°C° 0 mm 1 mps 704 mmHg 75%
    10:00 +15°C° 0 mm 1 mps 704 mmHg 70%
    11:00 +18°C° 0 mm 1 mps 704 mmHg 65%
    12:00 +17°C° 0 mm 2 mps 704 mmHg 65%
    13:00 +17°C° 0 mm 2 mps 704 mmHg 65%
    14:00 +17°C° 0 mm 2 mps 704 mmHg 64%
    15:00 +16°C° 0 mm 2 mps 703 mmHg 70%
    16:00 +16°C° 0 mm 2 mps 703 mmHg 75%
    17:00 +15°C° 0 mm 1 mps 703 mmHg 81%
    18:00 +14°C° 0 mm 1 mps 703 mmHg 84%
    19:00 +14°C° 0 mm 1 mps 703 mmHg 87%
    20:00 +13°C° 0 mm 1 mps 703 mmHg 89%
    21:00 +13°C° 0 mm 1 mps 703 mmHg 91%
    22:00 +12°C° 0 mm 1 mps 703 mmHg 92%
    23:00 +12°C° 0 mm 1 mps 703 mmHg 93%

    25 October, Friday

    Time Temperature Precipitation Wind Pressure Humidity
    00:00 +12°C° 0 mm 1 mps 703 mmHg 94%
    01:00 +11°C° 0 mm 0 mps 703 mmHg 94%
    02:00 +10°C° 0 mm 0 mps 703 mmHg 94%
    03:00 +10°C° 0 mm 0 mps 703 mmHg 94%
    04:00 +10°C° 0 mm 0 mps 703 mmHg 94%
    05:00 +11°C° 0 mm 0 mps 703 mmHg 93%
    06:00 +11°C° 0 mm 0 mps 703 mmHg 90%
    07:00 +12°C° 0 mm 0 mps 703 mmHg 86%
    08:00 +13°C° 0 mm 0 mps 703 mmHg 82%
    09:00 +15°C° 0 mm 1 mps 704 mmHg 75%
    10:00 +18°C° 0 mm 1 mps 704 mmHg 67%
    11:00 +20°C° 0 mm 1 mps 704 mmHg 60%
    12:00 +19°C° 0 mm 2 mps 704 mmHg 58%
    13:00 +20°C° 0 mm 2 mps 704 mmHg 57%
    14:00 +20°C° 0 mm 3 mps 703 mmHg 55%
    15:00 +19°C° 0 mm 3 mps 703 mmHg 65%
    16:00 +17°C° 0 mm 2 mps 703 mmHg 74%
    17:00 +15°C° 0 mm 2 mps 703 mmHg 84%
    18:00 +14°C° 0 mm 2 mps 703 mmHg 87%
    19:00 +14°C° 0 mm 2 mps 703 mmHg 90%
    20:00 +13°C° 0 mm 1 mps 703 mmHg 93%
    21:00 +13°C° 0 mm 1 mps 703 mmHg 93%
    22:00 +13°C° 0 mm 1 mps 703 mmHg 93%
    23:00 +12°C° 0 mm 1 mps 703 mmHg 93%

    26 October, Saturday

    Time Temperature Precipitation Wind Pressure Humidity
    00:00 +12°C° 0 mm 1 mps 703 mmHg 93%
    01:00 +11°C° 0 mm 0 mps 703 mmHg 93%
    02:00 +11°C° 0 mm 0 mps 703 mmHg 94%
    03:00 +11°C° 0 mm 0 mps 704 mmHg 94%
    04:00 +11°C° 0 mm 0 mps 704 mmHg 94%
    05:00 +11°C° 0 mm 0 mps 704 mmHg 94%
    06:00 +11°C° 0 mm 0 mps 704 mmHg 91%
    07:00 +12°C° 0 mm 0 mps 705 mmHg 88%
    08:00 +13°C° 0 mm 1 mps 705 mmHg 85%
    09:00 +15°C° 0 mm 1 mps 705 mmHg 79%
    10:00 +16°C° 0 mm 1 mps 705 mmHg 74%
    11:00 +18°C° 0 mm 1 mps 705 mmHg 68%
    12:00 +18°C° 0 mm 1 mps 705 mmHg 66%
    13:00 +18°C° 0 mm 2 mps 705 mmHg 64%
    14:00 +19°C° 0 mm 2 mps 705 mmHg 62%
    15:00 +17°C° 0.1 mm 2 mps 705 mmHg 69%
    16:00 +16°C° 0.1 mm 2 mps 705 mmHg 75%
    17:00 +15°C° 0.1 mm 2 mps 705 mmHg 82%
    18:00 +14°C° 0 mm 2 mps 705 mmHg 85%
    19:00 +14°C° 0 mm 2 mps 705 mmHg 88%
    20:00 +13°C° 0 mm 1 mps 705 mmHg 91%
    21:00 +13°C° 0 mm 1 mps 705 mmHg 92%
    22:00 +12°C° 0 mm 1 mps 705 mmHg 92%
    23:00 +12°C° 0 mm 1 mps 705 mmHg 93%
    Show more